FENGYUN 1C DEB, 30628

Orbit data source: Space-Track

FENGYUN 1C DEB, 30628 is space debris in SSO originally from a launch on Mon, 10 May 1999 UTC launched from the Taiyaun Space Center, China (TSC). Fengyun 1C debris stems from the Chinese weather satellite Fengyun-1C, which was intentionally destroyed by a Chinese anti-satellite missile in 2007. This event dramatically increased the amount of space debris, with thousands of trackable fragments posing hazards to satellites and human spaceflight. The Fengyun 1C debris cloud has become a focal point in discussions about space sustainability and the need for international regulations to prevent the creation of new debris.

Loading next visibility...
Identifier
30628, 1999-025ANK
Orbit
SSO
Country
Flag of CNCN / PRC
Related business
Manufacturer
Unknown
Mission
Spacecraft
Bus & Motor
Unknown
Mass
Unknown
Launch date (UTC)
1999-05-10 (27 years ago)
Launch vehicle
Unknown
Launch site
Taiyaun Space Center, China (TSC)
Object type
Payload
Rocket body
Debris
Shape & HBR
Unknown shape, 0.1 m
Radar Cross Section
Small (<0.1 m²)

Expand to show TLE details & history
Last TLE update: 11 hours ago

TLE from 11 hours ago
0 FENGYUN 1C DEB
1 30628U 99025ANK 26062.74776821  .00023768  00000-0  37774-2 0  9998
2 30628  99.3423 355.1795 0024170   0.2515 359.8696 14.71876700996611
Epoch: 2026-03-03T17:56Z
TLE epoch observation values (Epoch: 2026-03-03T17:56:47.173Z)
Latitude
-0.00001°
Longitude
-75.53944°
Altitude
641.044 km
Speed
7.547 km/s
True Right ascension
23h 40m 43s
True Declination
0° 00' 00"
Sunlit
Object was in daylight at epoch
Visualization orbit readout
Latitude
Unknown
Longitude
Unknown
Altitude
Unknown
Speed
Unknown
Apparent Right ascension
Unknown
Apparent Declination
Unknown
Sunlit
N/A
Visualization observer readout
Local Sidereal Time
08:45:35
Azimuth
Unknown
Elevation
Unknown
Doppler factor
Unknown
Orbital elements
Apogee altitude
669.197 km
Perigee altitude
635.213 km
Semi-major axis
7,030.342 km
Eccentricity
0.00242
Inclination
99.3423°
RAAN
355.1795°
Arg. of periapsis
0.2515°
True anomaly
359.86897°
Mean anomaly
359.8696°
Eccentric anomaly
359.86928°
Mean motion
3.68196 °/min
Orbital period
97.77 mins
BSTAR
0.0037774
Loading maneuver chart data...
Computing Atmospheric mass density...

Documentation

Showing up to 5 results
|